SCP
4 4 3 3 3 3 3 3 3 4 4 4 4 3 3 3 3 4 5 6 5 5 4 3 3 2 2 2 2 2 2 2 1 1 1 1 1 1 1 1 1 1 1
4 4 3 3 3 3 3 3 3 3 4 4 3 3 3 3 3 4 5 6 5 5 4 4 3 3 2 2 2 2 2 2 2 1 1 1 1 1 1 1 1 1 1
4 3 3 3 2 2 2 2 3 3 3 3 3 3 3 3 3 4 5 6 6 5 4 4 4 3 3 3 3 3 3 2 2 2 2 1 1 1 1 1 1 1 1
3 3 2 2 2 2 2 2 2 3 3 3 3 3 3 3 3 3 4 5 6 5 4 4 4 4 3 3 3 3 3 3 3 2 2 2 2 2 2 2 1 1 1
3 2 2 2 2 2 2 2 2 3 3 3 3 3 3 3 3 3 4 5 5 5 4 4 4 4 4 4 3 3 4 3 3 2 2 2 2 2 2 2 2 1 1
2 2 2 2 2 2 2 2 2 2 3 3 3 3 3 3 4 4 4 4 4 4 4 4 5 5 4 4 3 3 4 4 3 3 3 2 2 2 2 2 2 1 1
2 2 2 2 2 2 2 2 2 2 2 2 3 3 3 3 3 4 5 5 4 3 3 4 5 5 5 4 3 3 3 4 3 3 3 3 3 2 2 2 2 2 2
2 2 2 2 2 2 2 2 2 2 2 2 2 3 3 3 3 3 4 5 4 4 3 3 4 5 4 4 3 3 3 3 3 3 3 3 3 3 2 2 2 2 2
2 2 2 2 2 2 2 2 2 2 1 1 2 2 2 2 2 2 3 3 3 3 3 3 4 4 4 4 3 3 3 3 3 3 3 3 3 3 3 2 2 2 2
2 2 2 2 2 2 2 2 1 1 1 1 1 1 2 2 2 2 2 2 2 3 3 3 3 3 3 3 3 3 3 2 3 3 3 3 2 2 2 2 2 2 2
2 2 2 2 3 3 2 2 1 1 1 1 1 1 1 1 1 1 1 1 2 2 3 3 3 3 3 3 3 2 2 2 2 2 2 2 2 2 2 2 2 2 2
3 3 3 3 3 3 2 2 1 1 1 1 1 1 1 1 1 1 1 1 1 2 2 3 3 3 3 3 2 2 1 1 1 1 2 2 2 2 2 2 2 2 2
4 4 4 4 3 3 2 2 1 1 1 1 1 1 1 1 1 1 1 1 1 1 2 3 3 3 3 3 2 1 1 1 1 1 1 1 1 2 2 2 2 2 2
5 5 5 4 3 3 2 2 2 1 1 1 1 1 1 1 1 1 1 1 1 2 2 2 3 3 3 3 2 1 1 0 0 0 0 0 1 1 2 2 2 2 2
5 5 5 4 3 3 2 2 2 1 1 1 1 1 1 1 1 1 1 1 2 2 2 2 2 2 3 2 2 1 0 0 0 0 0 0 1 1 1 1 1 1 1
6 5 5 4 4 3 2 2 2 2 1 1 1 1 1 1 1 1 1 2 2 2 2 2 2 2 2 2 1 1 1 0 0 0 0 0 0 1 1 0 0 0 0
5 5 4 4 4 3 3 2 2 2 2 1 1 1 1 1 1 1 2 2 2 2 2 2 2 2 2 1 1 1 1 0 0 0 0 0 0 0 0 0 0 0 0
5 4 4 4 3 3 3 2 2 1 1 1 1 1 1 1 1 1 1 2 2 2 2 2 2 2 2 1 1 1 0 0 0 0 0 0 0 0 0 0 0 0 0
3 3 3 3 3 3 3 3 2 1 1 1 1 1 1 1 1 1 1 1 2 2 2 1 1 1 1 1 1 1 0 0 0 0 0 0 0 0 0 0 0 0 0
1 1 2 2 2 2 2 2 2 1 1 1 1 1 1 1 1 1 1 1 1 1 1 1 1 1 1 1 1 0 0 0 0 0 0 0 0 0 0 0 0 0 0
0 0 1 1 1 2 2 1 1 1 1 1 1 1 1 1 1 1 1 1 1 1 1 1 1 1 1 1 1 0 0 0 0 0 0 0 0 0 0 0 0 0 0
0 0 0 1 1 1 1 1 1 1 1 1 1 1 1 1 1 0 0 1 1 1 1 1 1 1 1 1 0 0 0 0 0 0 0 0 0 0 0 0 0 0 0
1 1 0 0 0 0 0 0 0 1 1 1 1 1 1 0 0 0 0 0 0 0 1 1 0 0 0 0 0 0 0 0 0 0 0 0 0 0 0 0 0 0 0
1 1 1 0 0 0 0 0 0 0 1 1 1 1 1 0 0 0 1 0 0 0 0 0 0 0 0 0 0 0 0 0 0 0 0 0 0 0 0 0 0 0 0
1 1 0 0 0 0 0 0 0 0 1 1 1 1 0 0 0 0 0 0 0 0 0 0 0 0 0 0 0 0 0 0 0 0 0 0 0 0 0 0 0 0 0
1 1 0 0 0 0 0 0 0 0 0 1 0 0 0 0 0 0 0 0 0 0 0 0 0 0 0 0 0 0 0 0 0 0 0 0 0 0 0 0 0 0 0
Wind_Speed
2 2 2 2 3 3 2 3 4 4 4 5 5 6 6 6 6 5 4 13 16 16 16 16 16 16 16 16 16 16 17 17 17 18 19 20 20 19 19 19 18 17 16
1 2 3 3 3 4 4 3 5 4 3 3 5 6 6 7 6 6 4 8 15 16 16 17 17 17 18 17 17 16 16 17 17 18 19 20 21 20 20 20 20 19 18
1 2 3 3 3 3 4 4 5 4 5 5 6 7 6 7 7 6 5 4 7 15 18 18 17 17 18 18 18 17 16 16 17 17 19 20 21 21 21 21 21 20 19
1 1 2 3 2 3 3 4 5 4 4 5 5 5 6 5 7 7 6 6 5 6 12 18 18 18 18 18 18 17 16 16 16 17 18 20 21 22 22 21 21 20 20
2 1 2 3 3 3 3 5 3 3 4 5 5 6 6 7 7 8 8 7 6 6 6 10 17 18 18 18 18 18 17 16 16 17 17 19 20 21 22 22 21 21 20
2 3 3 3 3 3 3 3 4 4 4 5 7 7 6 7 7 7 9 8 8 9 10 11 8 12 18 18 18 18 18 17 17 17 17 18 19 20 21 22 22 22 21
3 2 3 4 4 4 5 5 5 5 5 4 4 5 6 8 9 8 8 8 9 10 10 10 8 7 8 16 18 17 18 18 17 16 16 17 18 19 20 21 22 22 22
2 3 3 3 4 4 5 5 4 4 5 4 3 4 4 4 6 9 8 9 10 8 9 11 8 7 6 4 8 15 16 16 16 15 15 15 16 17 19 20 21 21 21
1 1 2 2 3 4 4 5 5 5 5 5 4 3 4 4 4 3 5 6 7 6 6 5 6 6 7 5 4 9 12 11 12 12 12 13 13 15 17 19 20 21 21
2 2 2 2 2 3 5 5 5 5 6 6 5 4 5 5 5 4 4 4 5 6 5 5 5 5 5 4 4 6 7 7 6 7 9 10 11 13 15 17 19 20 21
3 4 2 1 2 3 4 4 5 5 5 6 6 5 6 5 6 6 7 5 3 3 4 4 4 3 2 3 2 4 6 4 3 3 4 5 7 9 11 14 17 19 20
3 3 1 0 2 3 4 4 5 6 6 6 6 6 6 5 5 5 6 6 5 4 3 2 2 2 1 2 3 7 7 5 3 2 1 1 1 2 4 7 11 14 17
3 1 1 0 3 4 4 5 5 6 6 7 6 6 6 6 6 6 6 6 5 4 2 1 2 1 2 3 5 9 8 7 6 5 5 5 4 4 2 1 3 6 9
5 3 2 3 4 5 6 5 5 6 6 6 8 7 6 6 6 6 6 5 5 4 2 2 1 2 2 4 7 8 7 8 8 8 8 8 8 8 8 7 5 2 1
7 7 5 5 5 5 5 6 5 6 6 6 7 7 6 6 6 6 5 5 4 4 3 2 2 2 3 5 7 6 7 9 10 10 10 11 11 12 12 11 10 9 7
7 8 7 7 6 6 6 5 6 6 6 6 6 7 7 6 5 5 5 5 5 5 3 1 2 4 5 6 7 8 9 12 11 11 12 12 13 14 13 14 14 13 12
8 8 8 8 8 7 6 5 6 7 6 6 6 6 7 7 5 5 5 5 5 5 4 2 2 4 6 7 8 8 8 7 8 12 13 14 14 15 15 15 15 15 15
8 9 8 8 9 9 7 6 7 7 6 6 6 6 7 6 6 5 4 5 5 5 5 5 4 4 6 8 9 8 8 8 7 12 14 15 15 15 15 15 15 15 15
8 9 9 9 9 9 8 8 7 6 6 5 5 5 6 6 6 4 4 4 3 4 5 6 5 4 5 6 8 8 9 7 8 10 13 14 14 15 14 14 14 14 14
8 8 9 9 9 9 10 9 7 6 5 4 3 3 4 5 4 4 3 2 2 4 5 7 7 6 5 6 7 8 7 6 6 8 9 10 13 14 14 13 14 13 12
10 8 8 9 9 9 9 7 6 7 4 3 2 2 2 3 4 3 2 1 3 4 6 7 7 6 6 5 5 5 7 6 6 6 7 6 6 6 7 10 12 12 11
9 9 8 8 9 9 7 7 6 6 4 3 3 1 1 0 2 3 4 4 4 6 7 7 6 8 7 6 4 5 6 6 5 4 5 5 5 6 5 5 8 10 10
9 9 8 8 8 8 8 7 8 6 5 4 3 2 2 2 2 3 6 8 8 8 7 7 9 8 7 6 5 5 4 4 4 5 6 6 6 6 5 6 8 9 9
8 7 8 8 8 9 8 7 7 7 6 4 4 4 4 4 3 4 6 7 8 7 7 7 8 7 7 5 4 6 6 5 4 4 5 6 6 6 6 4 6 8 8
7 7 8 9 8 7 6 7 6 4 4 4 4 5 6 6 6 8 9 10 10 8 11 13 12 11 12 9 6 5 5 5 4 3 2 4 6 6 4 4 4 6 7
7 8 9 8 8 7 5 7 7 3 4 3 4 5 8 9 9 8 8 9 10 8 8 9 9 9 8 7 7 4 2 4 5 3 2 3 5 5 4 3 4 4 3
Wind_Direction
257 296 315 317 297 287 263 241 253 243 241 253 267 264 253 244 247 239 189 185 192 200 208 213 216 220 223 225 224 223 221 220 218 217 217 218 218 218 217 216 216 214 213
317 317 295 285 277 281 286 287 285 282 270 261 262 266 271 269 257 249 221 199 202 206 212 217 220 222 222 222 222 222 221 220 219 217 218 219 219 218 218 218 217 215 214
262 272 270 267 267 279 282 279 276 271 261 252 248 251 255 259 267 269 259 241 214 214 215 218 222 223 224 223 221 221 221 220 220 219 218 218 218 218 218 218 218 216 214
307 279 275 276 293 286 276 268 259 262 264 261 256 254 251 248 250 251 247 243 242 238 224 220 222 223 224 225 223 222 221 220 220 221 220 219 218 218 218 218 218 217 215
343 330 311 298 298 284 277 284 294 282 276 270 263 251 243 244 243 246 243 241 241 247 255 232 223 223 224 226 226 224 223 221 221 223 223 222 220 219 218 217 217 217 215
15 14 309 329 332 302 294 300 303 289 276 271 272 267 253 244 236 235 241 239 234 233 238 242 223 222 223 224 226 226 225 224 224 224 225 224 222 220 218 217 217 217 216
35 354 325 351 324 319 329 315 303 300 292 278 275 275 260 244 236 232 233 236 235 233 234 234 226 219 217 222 226 227 229 229 227 226 227 226 224 222 219 218 217 216 216
24 324 24 334 334 332 306 302 314 301 296 299 292 292 285 265 241 237 226 229 234 233 232 233 224 219 225 212 220 228 232 233 232 230 230 229 227 224 221 219 217 216 216
284 306 317 311 324 307 313 331 308 308 308 303 278 269 282 287 316 276 254 244 234 228 229 231 224 222 221 215 209 214 221 226 233 237 238 234 229 226 224 221 219 216 216
242 238 245 275 306 306 306 309 346 331 310 301 295 271 260 278 288 295 288 268 252 235 230 239 239 223 216 213 199 186 195 202 220 240 249 245 238 231 226 224 221 219 217
231 229 223 247 300 291 304 320 311 302 296 291 294 296 292 281 263 265 280 279 273 253 227 225 235 237 207 188 170 148 155 162 191 231 251 254 247 238 231 229 228 225 221
246 226 216 144 292 293 309 302 293 290 286 288 286 283 280 277 276 268 269 275 270 263 239 211 211 205 164 136 134 128 125 119 117 116 132 187 232 225 227 230 232 232 229
286 318 16 337 284 286 281 277 282 283 282 280 278 275 273 272 273 273 273 273 273 273 257 193 172 155 149 119 115 118 110 115 109 99 89 80 73 68 65 147 226 237 237
315 337 316 281 274 275 282 286 289 283 282 283 282 278 273 269 265 263 263 269 275 267 247 214 147 144 130 115 123 121 112 110 105 95 87 81 75 71 66 62 61 66 223
321 328 320 298 282 277 277 281 280 284 285 281 281 280 276 272 266 260 255 243 240 251 245 205 148 134 120 110 134 118 112 105 100 93 87 82 77 72 68 65 63 64 71
322 314 306 298 287 278 274 274 280 282 288 286 280 277 276 274 270 265 256 243 228 226 235 190 150 142 133 128 124 112 109 103 95 95 90 85 80 74 70 67 66 65 68
316 307 302 296 289 281 273 270 275 280 287 293 293 292 289 282 272 266 258 243 234 220 216 176 140 134 130 123 117 117 117 102 97 95 92 88 83 78 74 70 67 66 68
315 308 297 292 289 285 279 273 275 283 290 296 299 300 301 299 291 276 259 246 233 213 182 160 143 139 130 130 129 125 117 109 105 99 96 92 88 83 78 74 71 68 67
301 305 304 294 290 288 283 276 270 273 280 287 299 304 304 305 299 290 271 249 226 197 164 148 139 129 125 128 124 117 113 113 113 110 99 93 92 87 82 78 76 73 70
282 288 294 297 294 290 283 276 272 270 271 278 291 300 306 310 305 296 276 248 185 158 146 139 133 129 127 129 125 125 125 129 126 120 104 104 99 91 85 82 81 79 76
273 275 284 293 294 288 283 287 278 271 266 269 280 296 335 352 357 338 290 208 156 141 137 136 135 131 130 134 132 133 132 129 120 127 127 124 116 99 88 82 81 82 82
262 264 269 281 287 289 310 312 295 285 278 262 257 228 168 97 61 57 60 79 127 142 141 138 138 139 136 131 124 136 138 138 135 150 135 126 111 96 88 85 90 92 88
264 268 270 274 276 281 279 271 273 275 267 254 229 194 192 143 145 113 91 83 80 96 120 134 134 135 134 137 133 131 138 135 126 144 124 115 109 102 98 101 110 104 97
272 275 275 274 275 281 273 253 263 268 263 249 215 181 161 151 152 132 111 92 79 75 97 110 111 109 114 126 135 135 131 115 103 111 122 124 126 118 114 115 132 122 112
276 273 273 267 269 273 261 243 240 259 256 238 206 177 161 152 143 132 119 108 98 86 81 94 103 106 104 102 110 124 135 129 124 117 107 119 130 127 126 131 151 144 125
272 271 268 264 266 268 247 225 220 238 250 236 199 172 161 147 144 138 131 125 118 115 113 107 105 110 110 103 93 98 128 141 133 116 93 107 140 139 130 144 154 156 138